2023/02/01 00:00:00,72.1,-2.4
2023/02/01 00:10:00,72.1,-2.2
2023/02/01 00:20:00,72.0,-2.2
2023/02/01 00:30:00,72.0,-2.4
2023/02/01 00:40:00,71.9,-2.1
2023/02/01 00:50:00,71.8,-1.9
2023/02/01 01:00:00,71.8,-2.3
2023/02/01 01:10:00,71.7,-2.0
2023/02/01 01:20:00,71.7,-2.0
2023/02/01 01:30:00,71.7,-2.1
2023/02/01 01:40:00,71.6,-1.7
2023/02/01 01:50:00,71.5,-1.8
2023/02/01 02:00:00,71.6,-2.6
2023/02/01 02:10:00,71.5,-2.3
2023/02/01 02:20:00,71.5,-2.5
2023/02/01 02:30:00,71.4,-3.0
2023/02/01 02:40:00,71.3,-2.8
2023/02/01 02:50:00,71.2,-2.7
2023/02/01 03:00:00,71.1,-3.2
2023/02/01 03:10:00,71.1,-3.1
2023/02/01 03:20:00,71.0,-3.2
2023/02/01 03:30:00,71.0,-3.3
2023/02/01 03:40:00,70.9,-2.5
2023/02/01 03:50:00,70.8,-3.3
2023/02/01 04:00:00,70.9,-1.8
2023/02/01 04:10:00,70.8,-2.3
2023/02/01 04:20:00,70.8,-1.4
2023/02/01 04:30:00,70.8,-1.7
2023/02/01 04:40:00,70.7,-1.7
2023/02/01 04:50:00,70.7,-1.4
2023/02/01 05:00:00,70.6,-0.9
2023/02/01 05:10:00,70.3,-0.6
2023/02/01 05:20:00,70.3,-0.8
2023/02/01 05:30:00,70.3,-1.2
2023/02/01 05:40:00,70.3,-1.3
2023/02/01 05:50:00,70.3,-1.7
2023/02/01 06:00:00,70.2,-0.9
2023/02/01 06:10:00,70.3,-1.2
2023/02/01 06:20:00,70.2,-1.1
2023/02/01 06:30:00,70.1,-0.8
2023/02/01 06:40:00,69.9,-0.6
2023/02/01 06:50:00,69.9,-0.8
2023/02/01 07:00:00,69.9,-0.5
2023/02/01 07:10:00,69.9,-0.7
2023/02/01 07:20:00,69.8,-0.4
2023/02/01 07:30:00,69.8, 0.2
2023/02/01 07:40:00,69.8,-0.2
2023/02/01 07:50:00,69.7, 0.2
2023/02/01 08:00:00,69.7,-0.4
2023/02/01 08:10:00,69.6, 0.3
2023/02/01 08:20:00,69.6, 0.2
2023/02/01 08:30:00,69.6, 0.9
2023/02/01 08:40:00,69.5, 1.1
2023/02/01 08:50:00,69.6, 0.9
2023/02/01 09:00:00,69.5, 1.1
2023/02/01 09:10:00,69.4, 1.5
2023/02/01 09:20:00,69.3, 1.8
2023/02/01 09:30:00,69.2, 1.8
2023/02/01 09:40:00,69.1, 1.7
2023/02/01 09:50:00,69.0, 2.4
2023/02/01 10:00:00,69.0, 2.2
2023/02/01 10:10:00,68.9, 2.4
2023/02/01 10:20:00,68.8, 2.4
2023/02/01 10:30:00,68.8, 3.3
2023/02/01 10:40:00,68.8, 3.2
2023/02/01 10:50:00,68.5, 3.2
2023/02/01 11:00:00,68.2, 3.5
2023/02/01 11:10:00,68.1, 3.5
2023/02/01 11:20:00,67.9, 2.8
2023/02/01 11:30:00,67.2, 2.4
2023/02/01 11:40:00,67.2, 2.2
2023/02/01 11:50:00,67.0, 2.2
2023/02/01 12:00:00,66.7, 2.6
2023/02/01 12:10:00,66.5, 2.8
2023/02/01 12:20:00,66.3, 2.4
2023/02/01 12:30:00,65.9, 2.5
2023/02/01 12:40:00,65.7, 2.8
2023/02/01 12:50:00,65.4, 3.5
2023/02/01 13:00:00,65.2, 3.2
2023/02/01 13:10:00,64.9, 3.5
2023/02/01 13:20:00,64.7, 2.7
2023/02/01 13:30:00,64.4, 2.9
2023/02/01 13:40:00,64.3, 2.6
2023/02/01 13:50:00,64.2, 2.9
2023/02/01 14:00:00,63.9, 2.8
2023/02/01 14:10:00,63.6, 3.3
2023/02/01 14:20:00,63.6, 3.4
2023/02/01 14:30:00,63.3, 3.4
2023/02/01 14:40:00,63.2, 3.0
2023/02/01 14:50:00,63.1, 3.1
2023/02/01 15:00:00,62.9, 3.4
2023/02/01 15:10:00,62.8, 3.4
2023/02/01 15:20:00,62.5, 3.5
2023/02/01 15:30:00,62.4, 3.6
2023/02/01 15:40:00,62.2, 3.5
2023/02/01 15:50:00,62.2, 3.2
2023/02/01 16:00:00,62.1, 2.9
2023/02/01 16:10:00,61.9, 2.4
2023/02/01 16:20:00,61.9, 1.9
2023/02/01 16:30:00,61.8, 1.4
2023/02/01 16:40:00,61.7, 1.9
2023/02/01 16:50:00,61.7, 1.7
2023/02/01 17:00:00,61.5, 1.3
2023/02/01 17:10:00,61.4, 1.0
2023/02/01 17:20:00,61.4, 0.7
2023/02/01 17:30:00,61.3, 0.9
2023/02/01 17:40:00,61.1, 0.4
2023/02/01 17:50:00,61.0, 0.8
2023/02/01 18:00:00,60.8, 0.4
2023/02/01 18:10:00,60.8, 0.4
2023/02/01 18:20:00,60.6, 0.7
2023/02/01 18:30:00,60.5,-0.3
2023/02/01 18:40:00,60.5, 0.8
2023/02/01 18:50:00,60.4, 0.9
2023/02/01 19:00:00,60.2, 0.7
2023/02/01 19:10:00,60.1, 0.6
2023/02/01 19:20:00,60.2, 0.4
2023/02/01 19:30:00,60.1, 0.6
2023/02/01 19:40:00,59.8, 0.5
2023/02/01 19:50:00,59.7, 0.3
2023/02/01 20:00:00,59.5, 0.4
2023/02/01 20:10:00,59.4, 0.3
2023/02/01 20:20:00,59.3, 0.5
2023/02/01 20:30:00,59.2, 0.5
2023/02/01 20:40:00,59.1, 0.1
2023/02/01 20:50:00,58.9,-0.1
2023/02/01 21:00:00,58.8, 0.7
2023/02/01 21:10:00,58.7, 0.4
2023/02/01 21:20:00,58.8, 0.3
2023/02/01 21:30:00,58.6, 0.1
2023/02/01 21:40:00,58.6, 0.2
2023/02/01 21:50:00,58.5, 0.1
2023/02/01 22:00:00,58.3, 0.1
2023/02/01 22:10:00,58.3, 0.2
2023/02/01 22:20:00,58.3, 0.0
2023/02/01 22:30:00,58.2, 0.3
2023/02/01 22:40:00,58.2, 0.1
2023/02/01 22:50:00,58.3,-0.5
2023/02/01 23:00:00,58.1,-0.6
2023/02/01 23:10:00,57.9,-0.3
2023/02/01 23:20:00,58.0,-0.4
2023/02/01 23:30:00,58.0,-0.4
2023/02/01 23:40:00,58.0,-0.6
2023/02/01 23:50:00,58.4,-0.9
